Cloud_Cover
12 8 8 0 0 8 12 8 8 32 48 48 44 36 32 20 8 0 0 0 0 0 0 0 0 0 0 0 0 0 0 0 0 0 0 0 0 0 0 0 0 0 0 0 0 0 20 80 88 80 80 80 80 88 88 80 88 92 92 92 92 92 92 92 92 92 92 92 92
12 12 12 0 0 0 0 8 8 32 56 48 36 24 12 0 0 0 0 0 0 0 0 0 0 0 0 0 0 0 0 0 0 0 0 0 0 0 0 0 0 0 0 0 0 0 20 80 64 56 56 64 68 76 88 92 92 92 92 92 92 92 92 92 92 92 92 92 92
20 20 20 0 8 8 12 20 32 44 48 36 24 12 0 0 0 0 0 0 0 0 0 0 0 0 0 0 0 0 0 0 0 0 0 0 0 0 0 0 0 0 0 0 0 0 20 76 48 48 48 48 64 76 80 92 92 92 92 92 92 92 92 92 92 92 92 92 92
32 32 24 12 20 20 24 24 44 44 36 24 20 12 8 8 0 0 0 0 0 0 0 0 0 0 0 0 0 0 0 0 0 0 0 0 0 0 0 0 0 0 0 0 0 12 32 68 76 76 64 56 88 92 92 92 92 92 92 92 92 92 92 92 92 92 92 92 92
48 36 24 24 24 24 24 24 36 32 24 24 20 12 12 8 8 0 0 0 0 0 0 0 0 0 0 0 0 0 0 0 0 0 0 0 0 0 0 0 0 0 0 8 24 44 56 68 76 80 88 92 92 92 92 92 92 92 92 92 92 92 92 92 92 92 92 92 92
24 24 24 20 24 24 24 20 20 20 20 20 20 12 12 8 8 0 0 0 0 0 0 0 0 0 0 0 0 0 0 0 0 0 0 0 0 0 0 0 0 0 0 12 48 68 68 80 88 92 92 92 92 92 92 92 92 92 92 92 92 92 92 92 92 92 92 92 92
36 32 24 24 24 32 24 20 12 8 8 12 12 8 8 0 0 0 0 0 0 0 0 0 0 0 0 0 0 0 0 0 0 0 0 0 0 0 0 0 0 12 24 32 64 76 80 76 76 88 92 92 92 92 92 92 92 92 92 92 92 92 92 92 92 92 92 92 92
36 32 24 24 32 32 24 20 20 12 8 0 0 0 0 0 0 0 0 0 0 0 0 0 0 0 0 0 0 0 0 0 0 0 0 0 0 0 0 0 32 48 48 48 80 80 68 68 88 92 92 92 92 92 92 92 92 92 92 92 92 92 92 92 92 92 92 92 88
12 8 8 12 24 24 20 20 20 8 0 0 0 0 0 0 0 0 0 0 0 0 0 0 0 0 0 0 0 0 0 0 0 0 0 8 20 20 12 0 32 48 56 56 68 80 88 88 92 92 92 92 92 92 92 92 92 92 92 92 92 92 92 92 92 92 88 80 76
12 12 12 20 12 8 8 8 12 8 0 0 0 0 0 0 0 0 0 0 0 0 0 0 0 0 0 0 0 0 0 0 8 8 12 12 24 24 32 36 44 48 64 68 80 88 92 88 92 92 92 92 92 92 92 92 92 92 92 88 92 92 88 88 88 88 88 80 80
12 8 8 8 0 8 12 12 8 0 0 0 0 0 0 0 0 0 0 0 0 0 0 8 0 0 0 8 12 12 12 20 24 32 36 32 36 36 44 56 68 76 88 92 92 92 92 92 92 92 92 92 92 92 92 92 80 76 76 76 80 80 88 80 88 88 88 80 80
0 0 8 12 12 20 24 24 20 8 0 0 0 0 0 0 0 0 0 0 0 8 20 32 12 8 12 24 32 32 36 36 56 56 56 56 56 56 56 64 80 92 92 92 92 92 92 92 92 92 92 92 92 92 92 92 80 76 76 76 76 80 88 80 80 80 80 68 76
12 12 12 20 20 24 24 24 20 8 0 0 0 0 0 8 8 8 8 8 20 36 44 48 36 32 32 36 44 44 44 48 64 68 68 68 76 80 80 80 92 92 92 92 92 88 88 88 92 92 92 92 92 92 88 92 88 88 80 80 80 88 88 80 68 68 68 68 68
20 20 20 24 24 24 20 20 12 12 8 12 12 12 12 12 12 12 12 8 44 64 64 64 68 64 56 48 48 48 56 56 64 68 68 76 76 88 92 92 92 92 92 88 80 76 76 68 68 80 88 92 92 92 92 92 88 88 88 88 88 88 80 76 68 76 76 68 64
36 32 24 20 20 20 12 12 12 12 12 20 20 20 20 20 20 12 20 24 56 76 76 68 80 80 68 56 48 36 32 32 48 64 76 76 80 88 92 88 88 88 88 88 88 76 68 64 64 68 80 88 92 88 88 88 88 88 88 88 88 88 88 80 80 80 76 68 68
48 36 32 20 12 12 12 20 20 20 20 20 20 20 20 20 20 24 32 48 56 64 68 56 64 56 48 32 24 8 0 0 20 48 80 92 88 88 80 80 80 88 88 88 88 88 80 76 68 68 68 76 76 76 68 76 76 80 80 80 80 80 80 76 76 76 68 68 68
36 32 24 20 20 20 20 24 20 24 24 24 24 24 24 24 24 36 56 56 44 44 48 48 36 24 12 0 0 0 0 0 20 56 80 80 68 64 68 76 76 76 76 76 76 76 76 68 68 68 64 64 64 64 64 64 68 68 68 68 64 64 68 68 56 48 48 48 56
32 32 32 32 32 32 32 32 24 24 24 24 24 24 24 24 24 44 68 64 48 48 48 44 24 12 0 0 0 0 0 0 36 64 68 56 56 48 56 64 68 68 68 64 56 48 48 48 44 44 44 48 56 64 64 64 64 64 56 56 56 56 56 56 44 32 24 24 32
36 36 44 48 48 48 44 36 32 32 24 20 20 20 24 32 32 48 68 76 68 56 36 24 8 0 0 0 0 0 0 0 44 48 36 32 64 76 76 76 80 80 76 68 64 64 56 56 48 44 44 44 64 76 76 68 68 68 68 68 64 64 64 56 44 36 32 32 32
44 48 48 56 56 56 48 44 44 32 24 20 20 24 36 48 44 56 68 80 64 44 20 8 0 0 0 0 8 8 8 32 44 36 36 64 76 80 80 80 80 80 80 80 76 76 76 68 76 76 68 68 76 80 80 80 80 80 80 80 80 76 68 64 48 44 44 44 44
48 44 44 56 56 56 56 56 44 36 24 20 20 36 48 64 36 36 56 88 56 32 12 8 0 8 12 20 24 24 32 44 32 32 44 80 68 64 56 48 56 64 68 76 76 76 76 80 80 80 80 76 76 76 68 68 76 80 80 80 76 68 64 36 32 32 32 36 36
44 44 48 56 56 64 68 56 44 36 32 24 36 48 48 36 32 36 56 92 64 44 36 24 32 36 48 44 32 32 36 44 48 48 56 68 64 44 24 12 36 56 68 68 68 76 76 88 80 80 76 76 68 64 64 68 68 68 68 64 56 48 36 20 20 20 20 24 24
56 56 56 56 76 76 64 56 44 36 44 48 56 56 44 36 36 44 64 92 88 80 80 80 68 64 56 48 56 48 48 68 68 64 56 64 64 48 36 36 44 48 56 56 68 80 88 80 76 76 80 80 76 68 68 68 68 68 56 44 32 20 12 12 12 12 12 12 12
68 76 80 76 76 64 48 56 56 56 64 68 68 56 44 32 36 64 88 92 92 92 92 92 80 68 64 64 64 64 56 48 56 56 48 44 44 36 36 44 56 56 64 68 76 76 76 76 76 80 88 88 88 88 88 80 76 64 48 32 12 8 8 12 12 12 12 12 20
80 80 80 80 80 76 68 56 64 68 76 76 56 44 44 44 64 80 92 92 92 92 92 92 88 80 68 76 68 64 48 44 44 44 36 36 44 48 48 56 64 68 76 80 80 80 88 88 92 92 92 92 92 88 80 76 64 44 32 20 8 8 12 12 20 20 24 24 32
76 56 32 44 68 68 64 64 80 88 76 56 48 48 64 88 92 92 92 92 92 92 92 92 80 80 80 80 64 48 44 36 36 36 36 44 48 64 68 76 80 88 88 88 92 92 92 92 92 92 92 88 88 76 68 56 44 32 20 12 12 12 12 24 32 32 32 32 32
8 0 0 0 8 8 20 64 88 88 80 88 88 88 92 92 92 92 92 92 92 92 88 76 80 80 76 64 64 64 48 36 36 36 36 44 48 64 80 88 88 92 92 92 92 92 92 92 92 92 92 92 76 64 56 44 32 20 20 12 20 24 24 32 36 32 32 32 32
0 0 0 0 0 8 24 36 56 76 92 92 92 92 88 64 64 64 68 76 76 80 88 88 88 80 76 80 76 68 56 44 36 36 44 68 76 80 80 92 92 92 92 92 92 92 92 92 92 92 92 80 76 56 36 20 20 20 20 24 32 32 32 32 36 36 32 32 24
0 0 0 0 12 20 24 20 48 76 92 92 92 76 64 56 48 44 36 36 76 92 92 92 92 92 92 92 92 88 88 80 80 88 88 92 92 92 92 92 92 92 92 92 92 92 92 92 92 88 80 76 64 48 36 24 32 32 32 32 36 36 36 36 32 32 32 32 20
0 0 0 0 44 44 36 64 80 92 92 92 76 68 68 68 64 56 44 44 68 80 88 92 92 92 92 92 92 92 92 92 92 92 92 92 92 92 92 92 92 92 92 92 92 92 92 88 88 80 76 64 48 44 36 32 36 36 36 36 36 32 32 32 24 24 20 20 12
0 0 0 0 44 76 80 76 88 92 88 92 88 80 80 92 92 92 92 92 92 92 92 92 92 92 92 92 92 92 92 88 88 88 88 92 92 92 92 92 92 92 92 92 92 92 92 80 76 68 64 56 48 44 36 36 36 36 32 32 24 24 24 20 20 12 12 8 8
0 0 0 0 0 8 32 80 92 88 80 92 92 88 88 92 92 92 92 92 92 92 92 92 92 92 92 92 92 92 88 88 92 92 92 92 92 92 92 92 92 92 92 92 92 92 88 76 68 64 48 44 36 32 32 32 32 32 32 24 24 24 20 20 12 12 8 8 0
0 0 0 0 0 20 36 32 76 92 88 76 80 92 92 92 92 92 92 92 92 92 92 92 92 92 92 92 88 88 88 88 88 92 92 92 92 92 92 92 92 92 92 88 80 80 80 64 44 36 24 20 20 20 20 20 20 12 12 20 20 20 12 12 12 8 8 0 0
0 0 0 0 8 32 64 76 88 92 88 80 92 92 92 92 92 92 92 92 92 92 92 92 92 92 92 88 80 80 88 80 80 88 92 88 88 92 92 92 92 92 88 88 76 64 48 36 12 8 8 8 8 8 8 8 8 0 0 0 8 8 8 8 8 0 0 0 0
0 0 8 12 44 64 76 92 92 92 92 92 88 92 92 88 88 88 92 92 92 92 92 92 92 92 92 88 88 88 88 92 92 92 92 92 92 92 88 88 88 88 76 64 44 32 20 0 0 0 0 0 0 0 0 0 0 0 0 0 0 0 0 0 0 0 0 0 0
8 12 32 64 88 92 92 92 92 92 92 92 80 88 88 80 88 88 92 92 92 92 92 92 92 92 92 92 92 92 92 92 92 92 92 92 88 88 88 88 80 56 32 20 8 0 0 0 0 0 0 0 0 0 0 0 0 0 0 0 0 0 0 0 0 0 0 0 0
44 64 80 92 92 92 92 92 88 88 92 92 88 88 88 88 92 92 92 92 92 92 92 92 92 92 92 92 88 88 88 88 88 88 88 80 80 80 76 68 48 24 8 8 8 0 0 0 0 0 0 0 0 0 0 0 0 0 0 0 0 0 0 0 0 0 0 8 0
88 92 92 92 92 92 92 92 88 88 88 88 88 88 88 92 92 92 92 92 92 92 88 88 88 88 88 88 88 88 80 76 76 76 68 64 56 56 44 36 20 12 8 8 0 0 0 0 0 0 0 0 0 0 0 0 0 0 0 0 0 0 0 0 0 0 12 48 32
92 92 92 92 92 92 92 92 88 88 92 88 92 92 92 92 92 92 88 88 88 88 88 88 88 88 88 88 80 80 76 64 56 48 44 36 32 24 24 20 12 12 8 0 0 0 0 0 0 0 0 0 0 0 0 0 0 0 8 0 0 0 0 0 24 36 48 64 56
92 92 92 92 92 88 88 92 88 80 76 64 76 76 76 68 76 76 76 80 80 80 80 80 80 80 76 76 76 76 68 56 56 48 44 36 32 24 20 20 12 12 8 0 0 0 0 0 0 0 0 0 0 0 8 24 32 32 20 0 0 0 8 36 68 76 64 24 32
88 92 88 80 64 48 48 64 64 48 36 32 36 36 36 32 44 56 68 76 76 76 76 80 76 68 68 68 64 64 64 48 44 36 32 32 24 20 20 12 12 8 8 0 0 0 0 0 0 0 0 0 0 20 44 68 68 48 24 8 12 12 32 76 76 64 36 8 8